START_TIME,STEP,MOV.,H8,t_acc.,H43,t_acc.,M25,t_acc.,H9,t_acc.
1981-08-29 12:00:30.120 ,5,0,0.,12.0,0.,12.0,0.,12.0,0.,12.0
1981-08-29 12:00:42.120 ,5,0,0.,12.0,0.,12.0,0.,12.0,0.,12.0
1981-08-29 12:00:54.120 ,4,0,0.,12.0,0.,12.0,0.,12.0,0.,12.0
1981-08-29 12:01:06.120 ,4,0,0.,12.0,0.,12.0,0.,12.0,0.,12.0
1981-08-29 12:01:18.120 ,4,0,0.,12.0,0.,12.0,0.,12.0,0.,12.0
1981-08-29 12:01:30.120 ,4,0,0.,12.0,0.,12.0,0.,12.0,0.,12.0
1981-08-29 12:01:42.120 ,3,0,0.,12.0,0.,12.0,0.,12.0,0.,12.0
1981-08-29 12:01:54.120 ,3,0,0.,12.0,0.,12.0,0.,12.0,0.,12.0
1981-08-29 12:02:06.120 ,3,0,0.,12.0,0.,12.0,0.,12.0,0.,12.0
1981-08-29 12:02:18.120 ,3,0,0.,12.0,0.,12.0,0.,12.0,0.,12.0
1981-08-29 12:02:30.120 ,2,0,0.,12.0,0.,12.0,0.,12.0,0.,12.0
1981-08-29 12:02:42.120 ,2,0,0.,12.0,0.,12.0,0.,12.0,0.,12.0
1981-08-29 12:02:54.120 ,2,0,0.,12.0,0.,12.0,0.,12.0,0.,12.0
1981-08-29 12:03:06.120 ,2,0,0.,12.0,0.,12.0,0.,12.0,0.,12.0
1981-08-29 12:03:18.120 ,1,0,0.,12.0,0.,12.0,0.,12.0,0.,12.0
1981-08-29 12:03:30.120 ,1,0,0.,12.0,0.,12.0,0.,12.0,0.,12.0
1981-08-29 12:03:42.120 ,1,0,0.,12.0,0.,12.0,0.,12.0,0.,12.0
1981-08-29 12:03:54.120 ,1,0,0.,12.0,0.,12.0,0.,12.0,0.,12.0
1981-08-29 12:04:06.120 ,0,0,0.,12.0,0.,12.0,0.,12.0,0.,12.0
1981-08-29 12:04:18.120 ,0,0,0.,12.0,0.,12.0,0.,12.0,0.,12.0
1981-08-29 12:04:30.120 ,0,0,0.,12.0,0.,12.0,0.,12.0,0.,12.0
1981-08-29 12:04:42.120 ,0,0,0.,12.0,0.,12.0,0.,12.0,0.,12.0
1981-08-29 12:04:54.120 ,0,0,0.,12.0,0.,12.0,0.,12.0,0.,12.0
1981-08-29 12:05:06.120 ,0,0,0.,12.0,0.,12.0,0.,12.0,0.,12.0
1981-08-29 12:05:18.120 ,0,0,0.,12.0,0.,12.0,0.,12.0,0.,12.0
1981-08-29 12:05:30.120 ,0,0,0.,12.0,0.,12.0,0.,12.0,0.,12.0
1981-08-29 12:05:42.120 ,1,0,0.,12.0,0.,12.0,0.,12.0,0.,12.0
1981-08-29 12:05:54.120 ,1,0,0.,12.0,0.,12.0,0.,12.0,0.,12.0
1981-08-29 12:06:06.120 ,1,0,0.,12.0,0.,12.0,0.,12.0,0.,12.0
1981-08-29 12:06:18.120 ,1,0,0.,12.0,0.,12.0,0.,12.0,0.,12.0
1981-08-29 12:06:30.120 ,2,0,0.,12.0,0.,12.0,0.,12.0,0.,12.0
1981-08-29 12:06:42.120 ,2,0,0.,12.0,0.,12.0,0.,12.0,0.,12.0
1981-08-29 12:06:54.120 ,2,0,0.,12.0,0.,12.0,0.,12.0,0.,12.0
1981-08-29 12:07:06.120 ,2,0,0.,12.0,0.,12.0,0.,12.0,0.,12.0
1981-08-29 12:07:18.120 ,3,0,0.,12.0,0.,12.0,0.,12.0,0.,12.0
1981-08-29 12:07:30.120 ,3,0,0.,12.0,0.,12.0,0.,12.0,0.,12.0
1981-08-29 12:07:42.120 ,3,0,0.,12.0,0.,12.0,0.,12.0,0.,12.0
1981-08-29 12:07:54.120 ,3,0,0.,12.0,0.,12.0,0.,12.0,0.,12.0
1981-08-29 12:08:06.120 ,4,0,0.,12.0,0.,12.0,0.,12.0,0.,12.0
1981-08-29 12:08:18.120 ,4,0,0.,12.0,0.,12.0,0.,12.0,0.,12.0
1981-08-29 12:08:30.120 ,4,0,0.,12.0,0.,12.0,0.,12.0,0.,12.0
1981-08-29 12:08:42.120 ,4,0,0.,12.0,0.,12.0,0.,12.0,0.,12.0
1981-08-29 12:08:54.120 ,5,0,0.,12.0,0.,12.0,0.,12.0,0.,12.0
1981-08-29 12:09:06.120 ,5,0,0.,12.0,0.,12.0,0.,12.0,0.,12.0
1981-08-29 12:09:18.120 ,5,0,0.,12.0,0.,12.0,0.,12.0,0.,12.0
1981-08-29 12:09:30.120 ,5,0,0.,12.0,0.,12.0,0.,12.0,0.,12.0
1981-08-29 12:09:42.120 ,6,0,0.,12.0,0.,12.0,0.,12.0,0.,12.0
1981-08-29 12:09:54.120 ,6,0,0.,12.0,0.,12.0,0.,12.0,0.,12.0
1981-08-29 12:10:06.120 ,6,0,0.,12.0,0.,12.0,0.,12.0,0.,12.0
1981-08-29 12:10:18.120 ,6,0,0.,12.0,0.,12.0,0.,12.0,0.,12.0
1981-08-29 12:10:30.120 ,7,0,0.,12.0,0.,12.0,0.,12.0,0.,12.0
1981-08-29 12:10:42.120 ,7,0,0.,12.0,0.,12.0,0.,12.0,0.,12.0
1981-08-29 12:10:54.120 ,7,0,0.,12.0,0.,12.0,0.,12.0,0.,12.0
1981-08-29 12:11:06.120 ,7,0,0.,12.0,0.,12.0,0.,12.0,0.,12.0
1981-08-29 12:11:18.120 ,7,0,0.,12.0,0.,12.0,0.,12.0,0.,12.0
1981-08-29 12:11:30.120 ,7,0,0.,12.0,0.,12.0,0.,12.0,0.,12.0
1981-08-29 12:11:42.120 ,6,0,0.,12.0,0.,12.0,0.,12.0,0.,12.0
1981-08-29 12:11:54.120 ,6,0,0.,12.0,0.,12.0,0.,12.0,0.,12.0
1981-08-29 12:12:06.120 ,5,0,0.,12.0,0.,12.0,0.,12.0,0.,12.0
1981-08-29 12:12:18.120 ,5,0,0.,12.0,0.,12.0,0.,12.0,0.,12.0
1981-08-29 12:12:30.120 ,4,0,0.,12.0,0.,12.0,0.,12.0,0.,12.0
1981-08-29 12:12:42.120 ,4,0,0.,12.0,0.,12.0,0.,12.0,0.,12.0
1981-08-29 12:12:54.120 ,3,0,0.,12.0,0.,12.0,0.,12.0,0.,12.0
1981-08-29 12:13:06.120 ,3,0,0.,12.0,0.,12.0,0.,12.0,0.,12.0
1981-08-29 12:13:18.120 ,2,0,0.,12.0,0.,12.0,0.,12.0,0.,12.0
1981-08-29 12:13:30.120 ,2,0,0.,12.0,0.,12.0,0.,12.0,0.,12.0
1981-08-29 12:13:42.120 ,1,0,0.,12.0,0.,12.0,0.,12.0,0.,12.0
1981-08-29 12:13:54.120 ,1,0,0.,12.0,0.,12.0,0.,12.0,0.,12.0
1981-08-29 12:14:06.120 ,0,0,0.,12.0,0.,12.0,0.,12.0,0.,12.0
1981-08-29 12:14:18.120 ,0,0,0.,12.0,0.,12.0,0.,12.0,0.,12.0
1981-08-29 12:14:30.120 ,0,0,0.,12.0,0.,12.0,0.,12.0,0.,12.0
1981-08-29 12:14:42.120 ,0,0,0.,12.0,0.,12.0,0.,12.0,0.,12.0
1981-08-29 12:14:54.120 ,1,0,0.,12.0,0.,12.0,0.,12.0,0.,12.0
1981-08-29 12:15:06.120 ,1,0,0.,12.0,0.,12.0,0.,12.0,0.,12.0
1981-08-29 12:15:18.120 ,2,0,0.,12.0,0.,12.0,0.,12.0,0.,12.0
1981-08-29 12:15:30.120 ,2,0,0.,12.0,0.,12.0,0.,12.0,0.,12.0
1981-08-29 12:15:42.120 ,3,0,0.,12.0,0.,12.0,0.,12.0,0.,12.0
1981-08-29 12:15:54.120 ,3,0,0.,12.0,0.,12.0,0.,12.0,0.,12.0
1981-08-29 12:16:06.120 ,4,0,0.,12.0,0.,12.0,0.,12.0,0.,12.0
1981-08-29 12:16:18.120 ,4,0,0.,12.0,0.,12.0,0.,12.0,0.,12.0
1981-08-29 12:16:30.120 ,5,0,0.,12.0,0.,12.0,0.,12.0,0.,12.0
1981-08-29 12:16:42.120 ,5,0,0.,12.0,0.,12.0,0.,12.0,0.,12.0
1981-08-29 12:16:54.120 ,6,0,0.,12.0,0.,12.0,0.,12.0,0.,12.0
1981-08-29 12:17:06.120 ,6,0,0.,12.0,0.,12.0,0.,12.0,0.,12.0
1981-08-29 12:17:18.120 ,7,0,0.,12.0,0.,12.0,0.,12.0,0.,12.0
1981-08-29 12:17:30.120 ,7,0,0.,12.0,0.,12.0,0.,12.0,0.,12.0
1981-08-29 12:17:42.120 ,7,0,0.,12.0,0.,12.0,0.,12.0,0.,12.0
1981-08-29 12:17:54.120 ,7,0,0.,12.0,0.,12.0,0.,12.0,0.,12.0
1981-08-29 12:18:06.120 ,7,0,0.,12.0,0.,12.0,0.,12.0,0.,12.0
1981-08-29 12:18:18.120 ,7,0,0.,12.0,0.,12.0,0.,12.0,0.,12.0
1981-08-29 12:18:30.120 ,6,0,0.,12.0,0.,12.0,0.,12.0,0.,12.0
1981-08-29 12:18:42.120 ,6,0,0.,12.0,0.,12.0,0.,12.0,0.,12.0
1981-08-29 12:18:54.120 ,6,0,0.,12.0,0.,12.0,0.,12.0,0.,12.0
1981-08-29 12:19:06.120 ,6,0,0.,12.0,0.,12.0,0.,12.0,0.,12.0
1981-08-29 12:19:18.120 ,5,0,0.,12.0,0.,12.0,0.,12.0,0.,12.0
1981-08-29 12:19:30.120 ,5,0,0.,12.0,0.,12.0,0.,12.0,0.,12.0
1981-08-29 12:19:42.120 ,5,0,0.,12.0,0.,12.0,0.,12.0,0.,12.0
1981-08-29 12:19:54.120 ,5,0,0.,12.0,0.,12.0,0.,12.0,0.,12.0
1981-08-29 12:20:06.120 ,4,0,0.,12.0,0.,12.0,0.,12.0,0.,12.0
1981-08-29 12:20:18.120 ,4,0,0.,12.0,0.,12.0,0.,12.0,0.,12.0
1981-08-29 12:20:30.120 ,4,0,0.,12.0,0.,12.0,0.,12.0,0.,12.0
1981-08-29 12:20:42.120 ,4,0,0.,12.0,0.,12.0,0.,12.0,0.,12.0
1981-08-29 12:20:54.120 ,3,0,0.,12.0,0.,12.0,0.,12.0,0.,12.0
1981-08-29 12:21:06.120 ,3,0,0.,12.0,0.,12.0,0.,12.0,0.,12.0
1981-08-29 12:21:18.120 ,3,0,0.,12.0,0.,12.0,0.,12.0,0.,12.0
1981-08-29 12:21:30.120 ,3,0,0.,12.0,0.,12.0,0.,12.0,0.,12.0
1981-08-29 12:21:42.120 ,2,0,0.,12.0,0.,12.0,0.,12.0,0.,12.0
1981-08-29 12:21:54.120 ,2,0,0.,12.0,0.,12.0,0.,12.0,0.,12.0
1981-08-29 12:22:06.120 ,2,0,0.,12.0,0.,12.0,0.,12.0,0.,12.0
1981-08-29 12:22:18.120 ,2,0,0.,12.0,0.,12.0,0.,12.0,0.,12.0
1981-08-29 12:22:30.120 ,1,0,0.,12.0,0.,12.0,0.,12.0,0.,12.0
1981-08-29 12:22:42.120 ,1,0,0.,12.0,0.,12.0,0.,12.0,0.,12.0
1981-08-29 12:22:54.120 ,1,0,0.,12.0,0.,12.0,0.,12.0,0.,12.0
1981-08-29 12:23:06.120 ,1,0,0.,12.0,0.,12.0,0.,12.0,0.,12.0
1981-08-29 12:23:18.120 ,0,0,0.,12.0,0.,12.0,0.,12.0,0.,12.0
1981-08-29 12:23:30.120 ,0,0,0.,12.0,0.,12.0,0.,12.0,0.,12.0
1981-08-29 12:23:42.120 ,0,0,0.,12.0,0.,12.0,0.,12.0,0.,12.0
1981-08-29 12:23:54.120 ,0,0,0.,12.0,0.,12.0,0.,12.0,0.,12.0
1981-08-29 12:24:06.120 ,0,0,0.,12.0,0.,12.0,0.,12.0,0.,12.0
1981-08-29 12:24:18.120 ,0,0,0.,12.0,0.,12.0,0.,12.0,0.,12.0
1981-08-29 12:24:30.120 ,0,0,0.,12.0,0.,12.0,0.,12.0,0.,12.0
1981-08-29 12:24:42.120 ,0,0,0.,12.0,0.,12.0,0.,12.0,0.,12.0
1981-08-29 12:24:54.120 ,1,0,0.,12.0,0.,12.0,0.,12.0,0.,12.0
1981-08-29 12:25:06.120 ,1,0,0.,12.0,0.,12.0,0.,12.0,0.,12.0
1981-08-29 12:25:18.120 ,0,0,0.,12.0,0.,12.0,0.,12.0,0.,12.0
1981-08-29 12:25:30.120 ,0,0,0.,12.0,0.,12.0,0.,12.0,0.,12.0
1981-08-29 12:25:42.120 ,2,0,0.,12.0,0.,12.0,0.,12.0,0.,12.0
1981-08-29 12:25:54.120 ,2,0,0.,12.0,0.,12.0,0.,12.0,0.,12.0
1981-08-29 12:26:06.120 ,2,0,0.,12.0,0.,12.0,0.,12.0,0.,12.0
1981-08-29 12:26:18.120 ,2,0,0.,12.0,0.,12.0,0.,12.0,0.,12.0
1981-08-29 12:26:30.120 ,3,0,0.,12.0,0.,12.0,0.,12.0,0.,12.0
1981-08-29 12:26:42.120 ,3,0,0.,12.0,0.,12.0,0.,12.0,0.,12.0
1981-08-29 12:26:54.120 ,3,0,0.,12.0,0.,12.0,0.,12.0,0.,12.0
1981-08-29 12:27:06.120 ,3,0,0.,12.0,0.,12.0,0.,12.0,0.,12.0
1981-08-29 12:27:18.120 ,4,0,0.,12.0,0.,12.0,0.,12.0,0.,12.0
1981-08-29 12:27:30.120 ,4,0,0.,12.0,0.,12.0,0.,12.0,0.,12.0
1981-08-29 12:27:42.120 ,4,0,0.,12.0,0.,12.0,0.,12.0,0.,12.0
1981-08-29 12:27:54.120 ,4,0,0.,12.0,0.,12.0,0.,12.0,0.,12.0
1981-08-29 12:28:06.120 ,5,0,0.,12.0,0.,12.0,0.,12.0,0.,12.0
1981-08-29 12:28:18.120 ,5,0,0.,12.0,0.,12.0,0.,12.0,0.,12.0
1981-08-29 12:28:30.120 ,5,0,0.,12.0,0.,12.0,0.,12.0,0.,12.0
1981-08-29 12:28:42.120 ,5,0,0.,12.0,0.,12.0,0.,12.0,0.,12.0
1981-08-29 12:28:54.120 ,6,0,0.,12.0,0.,12.0,0.,12.0,0.,12.0
1981-08-29 12:29:06.120 ,6,0,0.,12.0,0.,12.0,0.,12.0,0.,12.0
1981-08-29 12:29:18.120 ,6,0,0.,12.0,0.,12.0,0.,12.0,0.,12.0
1981-08-29 12:29:30.120 ,6,0,0.,12.0,0.,12.0,0.,12.0,0.,12.0
1981-08-29 12:29:42.120 ,7,0,1.,12.0,0.,12.0,0.,12.0,0.,12.0
1981-08-29 12:29:54.120 ,7,0,0.,12.0,0.,12.0,0.,12.0,0.,12.0
1981-08-29 12:30:06.120 ,7,0,0.,12.0,0.,12.0,0.,12.0,0.,12.0
1981-08-29 12:30:18.120 ,7,0,0.,12.0,0.,12.0,0.,12.0,0.,12.0
1981-08-29 12:30:30.120 ,7,0,0.,12.0,0.,12.0,0.,12.0,0.,12.0
1981-08-29 12:30:42.120 ,7,0,0.,12.0,0.,12.0,0.,12.0,0.,12.0
1981-08-29 12:30:54.120 ,6,0,0.,12.0,0.,12.0,0.,12.0,0.,12.0
1981-08-29 12:31:06.120 ,6,0,0.,12.0,0.,12.0,0.,12.0,0.,12.0
1981-08-29 12:31:18.120 ,5,0,0.,12.0,0.,12.0,0.,12.0,0.,12.0
1981-08-29 12:31:30.120 ,5,0,0.,12.0,0.,12.0,0.,12.0,0.,12.0
1981-08-29 12:31:42.120 ,4,0,0.,12.0,0.,12.0,0.,12.0,0.,12.0
1981-08-29 12:31:54.120 ,4,0,0.,12.0,0.,12.0,0.,12.0,0.,12.0
1981-08-29 12:32:06.120 ,3,0,0.,12.0,0.,12.0,0.,12.0,0.,12.0
1981-08-29 12:32:18.120 ,3,0,0.,12.0,0.,12.0,0.,12.0,0.,12.0
1981-08-29 12:32:30.120 ,2,0,0.,12.0,0.,12.0,0.,12.0,0.,12.0
1981-08-29 12:32:42.120 ,2,0,0.,12.0,0.,12.0,0.,12.0,0.,12.0
1981-08-29 12:32:54.120 ,1,0,0.,12.0,0.,12.0,0.,12.0,0.,12.0
1981-08-29 12:33:06.120 ,1,0,0.,12.0,0.,12.0,0.,12.0,0.,12.0
1981-08-29 12:33:18.120 ,0,0,0.,12.0,0.,12.0,0.,12.0,0.,12.0
1981-08-29 12:33:30.120 ,0,0,0.,12.0,0.,12.0,0.,12.0,0.,12.0
1981-08-29 12:33:42.120 ,0,0,0.,12.0,0.,12.0,0.,12.0,0.,12.0
1981-08-29 12:33:54.120 ,0,0,0.,12.0,0.,12.0,0.,12.0,0.,12.0
1981-08-29 12:34:06.120 ,1,0,0.,12.0,0.,12.0,0.,12.0,0.,12.0
1981-08-29 12:34:18.120 ,1,0,0.,12.0,0.,12.0,0.,12.0,0.,12.0
1981-08-29 12:34:30.120 ,2,0,0.,12.0,0.,12.0,0.,12.0,0.,12.0
1981-08-29 12:34:42.120 ,2,0,0.,12.0,0.,12.0,0.,12.0,0.,12.0
1981-08-29 12:34:54.120 ,3,0,0.,12.0,0.,12.0,0.,12.0,0.,12.0
1981-08-29 12:35:06.120 ,3,0,0.,12.0,0.,12.0,0.,12.0,0.,12.0
1981-08-29 12:35:18.120 ,4,0,0.,12.0,0.,12.0,0.,12.0,0.,12.0
1981-08-29 12:35:30.120 ,4,0,0.,12.0,0.,12.0,0.,12.0,0.,12.0
1981-08-29 12:35:42.120 ,5,0,0.,12.0,0.,12.0,0.,12.0,0.,12.0
1981-08-29 12:35:54.120 ,5,0,0.,12.0,0.,12.0,0.,12.0,0.,12.0
1981-08-29 12:36:06.120 ,6,0,0.,12.0,0.,12.0,0.,12.0,0.,12.0
1981-08-29 12:36:18.120 ,6,0,0.,12.0,0.,12.0,0.,12.0,0.,12.0
1981-08-29 12:36:30.120 ,7,0,0.,12.0,0.,12.0,0.,12.0,0.,12.0
1981-08-29 12:36:42.120 ,7,0,0.,12.0,0.,12.0,0.,12.0,0.,12.0
1981-08-29 12:36:54.120 ,7,0,0.,12.0,0.,12.0,0.,12.0,0.,12.0
1981-08-29 12:37:06.120 ,7,0,0.,12.0,0.,12.0,0.,12.0,0.,12.0
1981-08-29 12:37:18.120 ,7,0,0.,12.0,0.,12.0,0.,12.0,0.,12.0
1981-08-29 12:37:30.120 ,7,0,0.,12.0,0.,12.0,0.,12.0,0.,12.0
1981-08-29 12:37:42.120 ,6,0,0.,12.0,0.,12.0,0.,12.0,0.,12.0
1981-08-29 12:37:54.120 ,6,0,0.,12.0,0.,12.0,0.,12.0,0.,12.0
1981-08-29 12:38:06.120 ,6,0,0.,12.0,0.,12.0,0.,12.0,0.,12.0
1981-08-29 12:38:18.120 ,6,0,0.,12.0,0.,12.0,0.,12.0,0.,12.0
1981-08-29 12:38:30.120 ,5,0,0.,12.0,0.,12.0,0.,12.0,0.,12.0
1981-08-29 12:38:42.120 ,5,0,0.,12.0,0.,12.0,0.,12.0,0.,12.0
1981-08-29 12:38:54.120 ,5,0,0.,12.0,0.,12.0,0.,12.0,0.,12.0
1981-08-29 12:39:06.120 ,5,0,0.,12.0,0.,12.0,0.,12.0,0.,12.0
1981-08-29 12:39:18.120 ,4,0,0.,12.0,0.,12.0,0.,12.0,0.,12.0
1981-08-29 12:39:30.120 ,4,0,0.,12.0,0.,12.0,0.,12.0,0.,12.0
1981-08-29 12:39:42.120 ,4,0,0.,12.0,0.,12.0,0.,12.0,0.,12.0
1981-08-29 12:39:54.120 ,4,0,0.,12.0,0.,12.0,0.,12.0,0.,12.0
1981-08-29 12:40:06.120 ,3,0,0.,12.0,0.,12.0,0.,12.0,0.,12.0
1981-08-29 12:40:18.120 ,3,0,0.,12.0,0.,12.0,0.,12.0,0.,12.0
1981-08-29 12:40:30.120 ,3,0,0.,12.0,0.,12.0,0.,12.0,0.,12.0
1981-08-29 12:40:42.120 ,3,0,0.,12.0,0.,12.0,0.,12.0,0.,12.0
1981-08-29 12:40:54.120 ,2,0,0.,12.0,0.,12.0,0.,12.0,0.,12.0
1981-08-29 12:41:06.120 ,2,0,0.,12.0,0.,12.0,0.,12.0,0.,12.0
1981-08-29 12:41:18.120 ,2,0,0.,12.0,0.,12.0,0.,12.0,0.,12.0
1981-08-29 12:41:30.120 ,2,0,0.,12.0,0.,12.0,0.,12.0,0.,12.0
1981-08-29 12:41:42.120 ,1,0,0.,12.0,0.,12.0,0.,12.0,0.,12.0
1981-08-29 12:41:54.120 ,1,0,0.,12.0,0.,12.0,0.,12.0,0.,12.0
1981-08-29 12:42:06.120 ,1,0,0.,12.0,0.,12.0,0.,12.0,0.,12.0
1981-08-29 12:42:18.120 ,1,0,0.,12.0,0.,12.0,0.,12.0,0.,12.0
1981-08-29 12:42:30.120 ,0,0,0.,12.0,0.,12.0,0.,12.0,0.,12.0
1981-08-29 12:42:42.120 ,0,0,0.,12.0,0.,12.0,0.,12.0,0.,12.0
1981-08-29 12:42:54.120 ,0,0,0.,12.0,0.,12.0,0.,12.0,0.,12.0
1981-08-29 12:43:06.120 ,0,0,0.,12.0,0.,12.0,0.,12.0,0.,12.0
1981-08-29 12:43:18.120 ,0,0,0.,12.0,0.,12.0,0.,12.0,0.,12.0
1981-08-29 12:43:30.120 ,0,0,0.,12.0,0.,12.0,0.,12.0,0.,12.0
1981-08-29 12:43:42.120 ,0,0,0.,12.0,0.,12.0,0.,12.0,0.,12.0
1981-08-29 12:43:54.120 ,0,0,,0,,0,,0,,0
1981-08-29 12:43:42.120 ,0,0,0.,12.0,0.,12.0,0.,12.0,0.,12.0
1981-08-29 12:43:54.120 ,0,0,0.,12.0,0.,12.0,0.,12.0,0.,12.0
1981-08-29 12:44:06.120 ,1,0,0.,12.0,0.,12.0,0.,12.0,0.,12.0
1981-08-29 12:44:18.120 ,1,0,0.,12.0,0.,12.0,0.,12.0,0.,12.0
1981-08-29 12:44:30.120 ,1,0,0.,12.0,0.,12.0,0.,12.0,0.,12.0
1981-08-29 12:44:42.120 ,1,0,0.,12.0,0.,12.0,0.,12.0,0.,12.0
1981-08-29 12:44:54.120 ,2,0,0.,12.0,0.,12.0,0.,12.0,0.,12.0
1981-08-29 12:45:06.120 ,2,0,0.,12.0,0.,12.0,0.,12.0,0.,12.0
1981-08-29 12:45:18.120 ,2,0,0.,12.0,0.,12.0,0.,12.0,0.,12.0
1981-08-29 12:45:30.120 ,2,0,0.,12.0,0.,12.0,0.,12.0,0.,12.0
1981-08-29 12:45:42.120 ,3,0,0.,12.0,0.,12.0,0.,12.0,0.,12.0
1981-08-29 12:45:54.120 ,3,0,0.,12.0,0.,12.0,0.,12.0,0.,12.0
1981-08-29 12:46:06.120 ,3,0,0.,12.0,0.,12.0,0.,12.0,0.,12.0
1981-08-29 12:46:18.120 ,3,0,0.,12.0,0.,12.0,0.,12.0,0.,12.0
1981-08-29 12:46:30.120 ,4,0,0.,12.0,0.,12.0,0.,12.0,0.,12.0
1981-08-29 12:46:42.120 ,4,0,0.,12.0,0.,12.0,0.,12.0,0.,12.0
1981-08-29 12:46:54.120 ,4,0,0.,12.0,0.,12.0,0.,12.0,0.,12.0
1981-08-29 12:47:06.120 ,4,0,0.,12.0,0.,12.0,0.,12.0,0.,12.0
1981-08-29 12:47:18.120 ,5,0,0.,12.0,0.,12.0,0.,12.0,0.,12.0
1981-08-29 12:47:30.120 ,5,0,0.,12.0,0.,12.0,0.,12.0,0.,12.0
1981-08-29 12:47:42.120 ,5,0,0.,12.0,0.,12.0,0.,12.0,0.,12.0
1981-08-29 12:47:54.120 ,5,0,0.,12.0,0.,12.0,0.,12.0,0.,12.0
1981-08-29 12:48:06.120 ,6,0,0.,12.0,0.,12.0,0.,12.0,0.,12.0
1981-08-29 12:48:18.120 ,6,0,0.,12.0,0.,12.0,0.,12.0,0.,12.0
1981-08-29 12:48:30.120 ,6,0,0.,12.0,0.,12.0,0.,12.0,0.,12.0
1981-08-29 12:48:42.120 ,6,0,0.,12.0,0.,12.0,0.,12.0,0.,12.0
1981-08-29 12:48:54.120 ,7,0,0.,12.0,0.,12.0,0.,12.0,0.,12.0
1981-08-29 12:49:06.120 ,7,0,0.,12.0,0.,12.0,0.,12.0,0.,12.0
1981-08-29 12:49:18.120 ,7,0,0.,12.0,0.,12.0,0.,12.0,0.,12.0
1981-08-29 12:49:30.120 ,7,0,0.,12.0,0.,12.0,0.,12.0,0.,12.0
1981-08-29 12:49:42.120 ,7,0,0.,12.0,0.,12.0,0.,12.0,0.,12.0
1981-08-29 12:49:54.120 ,7,0,0.,12.0,0.,12.0,0.,12.0,0.,12.0
1981-08-29 12:50:06.120 ,6,0,0.,12.0,0.,12.0,0.,12.0,0.,12.0
1981-08-29 12:50:18.120 ,6,0,0.,12.0,0.,12.0,0.,12.0,0.,12.0
1981-08-29 12:50:30.120 ,5,0,0.,12.0,0.,12.0,0.,12.0,0.,12.0
1981-08-29 12:50:42.120 ,5,0,0.,12.0,0.,12.0,0.,12.0,0.,12.0
1981-08-29 12:50:54.120 ,4,0,0.,12.0,0.,12.0,0.,12.0,0.,12.0
1981-08-29 12:51:06.120 ,4,0,0.,12.0,0.,12.0,0.,12.0,0.,12.0
1981-08-29 12:51:18.120 ,3,0,0.,12.0,0.,12.0,0.,12.0,0.,12.0
1981-08-29 12:51:30.120 ,3,0,0.,12.0,0.,12.0,0.,12.0,0.,12.0
1981-08-29 12:51:42.120 ,2,0,0.,12.0,0.,12.0,0.,12.0,0.,12.0
1981-08-29 12:51:54.120 ,2,0,0.,12.0,0.,12.0,0.,12.0,0.,12.0
1981-08-29 12:52:06.120 ,1,0,0.,12.0,0.,12.0,0.,12.0,0.,12.0
1981-08-29 12:52:18.120 ,1,0,0.,12.0,0.,12.0,0.,12.0,0.,12.0
1981-08-29 12:52:30.120 ,0,0,0.,12.0,0.,12.0,0.,12.0,0.,12.0
1981-08-29 12:52:42.120 ,0,0,0.,12.0,0.,12.0,0.,12.0,0.,12.0
1981-08-29 12:52:54.120 ,0,0,0.,12.0,0.,12.0,0.,12.0,0.,12.0
1981-08-29 12:53:06.120 ,0,0,0.,12.0,0.,12.0,0.,12.0,0.,12.0
1981-08-29 12:53:18.120 ,1,0,0.,12.0,0.,12.0,0.,12.0,0.,12.0
1981-08-29 12:53:30.120 ,1,0,0.,12.0,0.,12.0,0.,12.0,0.,12.0
1981-08-29 12:53:42.120 ,2,0,0.,12.0,0.,12.0,0.,12.0,0.,12.0
1981-08-29 12:53:54.120 ,2,0,0.,12.0,0.,12.0,0.,12.0,0.,12.0
1981-08-29 12:54:06.120 ,3,0,0.,12.0,0.,12.0,0.,12.0,0.,12.0
1981-08-29 12:54:18.120 ,3,0,0.,12.0,0.,12.0,0.,12.0,0.,12.0
1981-08-29 12:54:30.120 ,4,0,0.,12.0,0.,12.0,0.,12.0,0.,12.0
1981-08-29 12:54:42.120 ,4,0,0.,12.0,0.,12.0,0.,12.0,0.,12.0
1981-08-29 12:54:54.120 ,5,0,0.,12.0,0.,12.0,0.,12.0,0.,12.0
1981-08-29 12:55:06.120 ,5,0,0.,12.0,0.,12.0,0.,12.0,0.,12.0
1981-08-29 12:55:18.120 ,6,0,0.,12.0,0.,12.0,0.,12.0,0.,12.0
1981-08-29 12:55:30.120 ,6,0,0.,12.0,0.,12.0,0.,12.0,0.,12.0
1981-08-29 12:55:42.120 ,7,0,0.,12.0,0.,12.0,0.,12.0,0.,12.0
1981-08-29 12:55:54.120 ,7,0,0.,12.0,0.,12.0,0.,12.0,0.,12.0
1981-08-29 12:56:06.120 ,7,0,0.,12.0,0.,12.0,0.,12.0,0.,12.0
1981-08-29 12:56:18.120 ,7,0,0.,12.0,0.,12.0,0.,12.0,0.,12.0
1981-08-29 12:56:30.120 ,7,0,0.,12.0,0.,12.0,0.,12.0,0.,12.0
1981-08-29 12:56:42.120 ,7,0,0.,12.0,0.,12.0,0.,12.0,0.,12.0
1981-08-29 12:56:54.120 ,6,0,0.,12.0,0.,12.0,0.,12.0,0.,12.0
1981-08-29 12:57:06.120 ,6,0,0.,12.0,0.,12.0,0.,12.0,0.,12.0
1981-08-29 12:57:18.120 ,6,0,0.,12.0,0.,12.0,0.,12.0,0.,12.0
1981-08-29 12:57:30.120 ,6,0,0.,12.0,0.,12.0,0.,12.0,0.,12.0
1981-08-29 12:57:42.120 ,5,0,0.,12.0,0.,12.0,0.,12.0,0.,12.0
1981-08-29 12:57:54.120 ,5,0,0.,12.0,0.,12.0,0.,12.0,0.,12.0
1981-08-29 12:58:06.120 ,5,0,0.,12.0,0.,12.0,0.,12.0,0.,12.0
1981-08-29 12:58:18.120 ,5,0,0.,12.0,0.,12.0,0.,12.0,0.,12.0
1981-08-29 12:58:30.120 ,4,0,0.,12.0,0.,12.0,0.,12.0,0.,12.0
1981-08-29 12:58:42.120 ,4,0,0.,12.0,0.,12.0,0.,12.0,0.,12.0
1981-08-29 12:58:54.120 ,4,0,0.,12.0,0.,12.0,0.,12.0,0.,12.0
1981-08-29 12:59:06.120 ,4,0,0.,12.0,0.,12.0,0.,12.0,0.,12.0
1981-08-29 12:59:18.120 ,3,0,0.,12.0,0.,12.0,0.,12.0,0.,12.0
1981-08-29 12:59:30.120 ,3,0,0.,12.0,0.,12.0,0.,12.0,0.,12.0
1981-08-29 12:59:42.120 ,3,0,0.,12.0,0.,12.0,0.,12.0,0.,12.0
1981-08-29 12:59:54.120 ,3,0,0.,12.0,0.,12.0,0.,12.0,0.,12.0
1981-08-29 13:00:06.120 ,2,0,0.,12.0,0.,12.0,0.,12.0,0.,12.0
1981-08-29 13:00:18.120 ,2,0,0.,12.0,0.,12.0,0.,12.0,0.,12.0
1981-08-29 13:00:30.120 ,2,0,0.,12.0,0.,12.0,0.,12.0,0.,12.0
1981-08-29 13:00:42.120 ,2,0,0.,12.0,0.,12.0,0.,12.0,0.,12.0
1981-08-29 13:00:54.120 ,1,0,0.,12.0,0.,12.0,0.,12.0,0.,12.0
1981-08-29 13:01:06.120 ,1,0,0.,12.0,0.,12.0,0.,12.0,0.,12.0
1981-08-29 13:01:18.120 ,1,0,0.,12.0,0.,12.0,0.,12.0,0.,12.0
1981-08-29 13:01:30.120 ,1,0,0.,12.0,0.,12.0,0.,12.0,0.,12.0
1981-08-29 13:01:42.120 ,0,0,0.,12.0,0.,12.0,0.,12.0,0.,12.0
1981-08-29 13:01:54.120 ,0,0,0.,12.0,0.,12.0,0.,12.0,0.,12.0
1981-08-29 13:02:06.120 ,0,0,0.,12.0,0.,12.0,0.,12.0,0.,12.0
1981-08-29 13:02:18.120 ,0,0,0.,12.0,0.,12.0,0.,12.0,0.,12.0
1981-08-29 13:02:30.120 ,0,0,0.,12.0,0.,12.0,0.,12.0,0.,12.0
1981-08-29 13:02:42.120 ,0,0,0.,12.0,0.,12.0,0.,12.0,0.,12.0
1981-08-29 13:02:54.120 ,0,0,0.,12.0,0.,12.0,0.,12.0,0.,12.0
1981-08-29 13:03:06.120 ,0,0,0.,12.0,0.,12.0,0.,12.0,0.,12.0
1981-08-29 13:03:18.120 ,1,0,0.,12.0,0.,12.0,0.,12.0,0.,12.0
1981-08-29 13:03:30.120 ,1,0,0.,12.0,0.,12.0,0.,12.0,0.,12.0
1981-08-29 13:03:42.120 ,1,0,0.,12.0,0.,12.0,0.,12.0,0.,12.0
1981-08-29 13:03:54.120 ,1,0,0.,12.0,0.,12.0,0.,12.0,0.,12.0
1981-08-29 13:04:06.120 ,2,0,0.,12.0,0.,12.0,0.,12.0,0.,12.0
1981-08-29 13:04:18.120 ,2,0,0.,12.0,0.,12.0,0.,12.0,0.,12.0
1981-08-29 13:04:30.120 ,2,0,0.,12.0,0.,12.0,0.,12.0,0.,12.0
1981-08-29 13:04:42.120 ,2,0,0.,12.0,0.,12.0,0.,12.0,0.,12.0
1981-08-29 13:04:54.120 ,3,0,0.,12.0,0.,12.0,0.,12.0,0.,12.0
1981-08-29 13:05:06.120 ,3,0,0.,12.0,0.,12.0,0.,12.0,0.,12.0
1981-08-29 13:05:18.120 ,3,0,0.,12.0,0.,12.0,0.,12.0,0.,12.0
1981-08-29 13:05:30.120 ,3,0,0.,12.0,0.,12.0,0.,12.0,0.,12.0
1981-08-29 13:05:42.120 ,4,0,0.,12.0,0.,12.0,0.,12.0,0.,12.0
1981-08-29 13:05:54.120 ,4,0,0.,12.0,0.,12.0,0.,12.0,0.,12.0
1981-08-29 13:06:06.120 ,4,0,0.,12.0,0.,12.0,0.,12.0,0.,12.0
1981-08-29 13:06:18.120 ,4,0,0.,12.0,0.,12.0,0.,12.0,0.,12.0
1981-08-29 13:06:30.120 ,5,0,0.,12.0,0.,12.0,0.,12.0,0.,12.0
1981-08-29 13:06:42.120 ,5,0,0.,12.0,0.,12.0,0.,12.0,0.,12.0
1981-08-29 13:06:54.120 ,5,0,0.,12.0,0.,12.0,0.,12.0,0.,12.0
1981-08-29 13:07:06.120 ,5,0,0.,12.0,0.,12.0,0.,12.0,0.,12.0
1981-08-29 13:07:18.120 ,6,0,0.,12.0,0.,12.0,0.,12.0,0.,12.0
1981-08-29 13:07:30.120 ,6,0,0.,12.0,0.,12.0,0.,12.0,0.,12.0
1981-08-29 13:07:42.120 ,6,0,0.,12.0,0.,12.0,0.,12.0,0.,12.0
1981-08-29 13:07:54.120 ,6,0,0.,12.0,0.,12.0,0.,12.0,0.,12.0
1981-08-29 13:08:06.120 ,7,0,0.,12.0,0.,12.0,0.,12.0,0.,12.0
1981-08-29 13:08:18.120 ,7,0,0.,12.0,0.,12.0,0.,12.0,0.,12.0
1981-08-29 13:08:30.120 ,7,0,0.,12.0,0.,12.0,0.,12.0,0.,12.0
1981-08-29 13:08:42.120 ,7,0,0.,12.0,0.,12.0,0.,12.0,0.,12.0
1981-08-29 13:08:54.120 ,7,0,0.,12.0,0.,12.0,0.,12.0,0.,12.0
1981-08-29 13:09:06.120 ,7,0,0.,12.0,0.,12.0,0.,12.0,0.,12.0
1981-08-29 13:09:18.120 ,6,0,0.,12.0,0.,12.0,0.,12.0,0.,12.0
1981-08-29 13:09:30.120 ,6,0,0.,12.0,0.,12.0,0.,12.0,0.,12.0
1981-08-29 13:09:42.120 ,5,0,0.,12.0,0.,12.0,0.,12.0,0.,12.0
1981-08-29 13:09:54.120 ,5,0,0.,12.0,0.,12.0,0.,12.0,0.,12.0
1981-08-29 13:10:06.120 ,4,0,0.,12.0,0.,12.0,0.,12.0,0.,12.0
1981-08-29 13:10:18.120 ,4,0,0.,12.0,0.,12.0,0.,12.0,0.,12.0
1981-08-29 13:10:30.120 ,3,0,0.,12.0,0.,12.0,0.,12.0,0.,12.0
1981-08-29 13:10:42.120 ,3,0,0.,12.0,0.,12.0,0.,12.0,0.,12.0
1981-08-29 13:10:54.120 ,2,0,0.,12.0,0.,12.0,0.,12.0,0.,12.0
1981-08-29 13:11:06.120 ,2,0,0.,12.0,0.,12.0,0.,12.0,0.,12.0
1981-08-29 13:11:18.120 ,1,0,0.,12.0,0.,12.0,0.,12.0,0.,12.0
1981-08-29 13:11:30.120 ,1,0,0.,12.0,0.,12.0,0.,12.0,0.,12.0
1981-08-29 13:11:42.120 ,0,0,0.,12.0,0.,12.0,0.,12.0,0.,12.0
1981-08-29 13:11:54.120 ,0,0,0.,12.0,0.,12.0,0.,12.0,0.,12.0
1981-08-29 13:12:06.120 ,0,0,0.,12.0,0.,12.0,0.,12.0,0.,12.0
1981-08-29 13:12:18.120 ,0,0,0.,12.0,0.,12.0,0.,12.0,0.,12.0
1981-08-29 13:12:30.120 ,1,0,0.,12.0,0.,12.0,0.,12.0,0.,12.0
1981-08-29 13:12:42.120 ,1,0,0.,12.0,0.,12.0,0.,12.0,0.,12.0
1981-08-29 13:12:54.120 ,2,0,0.,12.0,0.,12.0,0.,12.0,0.,12.0
1981-08-29 13:13:06.120 ,2,0,0.,12.0,0.,12.0,0.,12.0,0.,12.0
1981-08-29 13:13:18.120 ,3,0,0.,12.0,0.,12.0,0.,12.0,0.,12.0
1981-08-29 13:13:30.120 ,3,0,0.,12.0,0.,12.0,0.,12.0,0.,12.0
1981-08-29 13:13:42.120 ,4,0,0.,12.0,0.,12.0,0.,12.0,0.,12.0
1981-08-29 13:13:54.120 ,4,0,0.,12.0,0.,12.0,0.,12.0,0.,12.0
1981-08-29 13:14:06.120 ,5,0,0.,12.0,0.,12.0,0.,12.0,0.,12.0
1981-08-29 13:14:18.120 ,5,0,0.,12.0,0.,12.0,0.,12.0,0.,12.0
1981-08-29 13:14:30.120 ,6,0,0.,12.0,0.,12.0,0.,12.0,0.,12.0
1981-08-29 13:14:42.120 ,6,0,0.,12.0,0.,12.0,0.,12.0,0.,12.0
1981-08-29 13:14:54.120 ,7,0,0.,12.0,0.,12.0,0.,12.0,0.,12.0
1981-08-29 13:15:06.120 ,7,0,0.,12.0,0.,12.0,0.,12.0,0.,12.0
1981-08-29 13:15:18.120 ,7,0,0.,12.0,0.,12.0,0.,12.0,0.,12.0
1981-08-29 13:15:30.120 ,7,0,0.,12.0,0.,12.0,0.,12.0,0.,12.0
1981-08-29 13:15:42.120 ,7,0,0.,12.0,0.,12.0,0.,12.0,0.,12.0
1981-08-29 13:15:54.120 ,7,0,0.,12.0,0.,12.0,0.,12.0,0.,12.0
1981-08-29 13:16:06.120 ,6,0,0.,12.0,0.,12.0,0.,12.0,0.,12.0
1981-08-29 13:16:18.120 ,6,0,0.,12.0,0.,12.0,0.,12.0,0.,12.0
1981-08-29 13:16:30.120 ,6,0,0.,12.0,0.,12.0,0.,12.0,0.,12.0
1981-08-29 13:16:42.120 ,6,0,0.,12.0,0.,12.0,0.,12.0,0.,12.0
1981-08-29 13:16:54.120 ,5,0,0.,12.0,0.,12.0,0.,12.0,0.,12.0
1981-08-29 13:17:06.120 ,5,0,0.,12.0,0.,12.0,0.,12.0,0.,12.0